Location: Im Fang
(46.6019°N, 7.2397°E)
Time: 08:57:12
(UTC+00:00)

Cosmos 1932 - Pass Details

Date: 08 December 2019
Orbit: 922 x 1008 km, 65.0° (Epoch: 20 January)

Event Time Altitude Azimuth Distance (km) Brightness Sun altitude
Rises 05:07:32 0° 220° (SW) 3,617 7.2 -18.8°
Reaches altitude 10° 05:10:03 10° 222° (SW) 2,687 6.5 -18.4°
Maximum altitude 05:16:22 76° 308° (NW) 1,009 4.4 -17.3°
Drops below altitude 10° 05:22:51 10° 35° (NE) 2,761 7.1 -16.2°
Sets 05:25:29 0° 37° (NE) 3,724 7.8 -15.8°
